Watford City, ND

9:17 PM CST on December 11, 2019 (GMT -0600)
Watford City

Weather History for KS25 - October, 2019

Change the Weather History Date:

Friday, October 4, 2019

  Actual Average (WUND) Record (WUND)
Temperature  
Mean Temperature 42 °F -  
Max Temperature 48 °F - - (-1)
Min Temperature 35 °F - - (-1)
Degree Days  
Heating Degree Days 24    
Moisture  
Dew Point 42 °F    
Average Humidity 97    
Maximum Humidity 100    
Minimum Humidity 93    
Precipitation  
Precipitation 0.00 in - - ()
Sea Level Pressure  
Sea Level Pressure 29.96 in    
Wind  
Wind Speed 15 mph (SE)    
Max Wind Speed 23 mph    
Max Gust Speed 31 mph    
Visibility 10 miles    
Events      
Averages and records for this station are not official NWS values.
T = Trace of Precipitation, MM = Missing Value Source: NWS Daily Summary

Daily Weather History Graph

Daily Weather History Graph

Search for Another Location

Airport or City:

Astronomy

Oct. 04, 2019 Rise Set
Actual Time 7:56 AM CDT 7:26 PM CDT
Civil Twilight 7:25 AM CDT 7:57 PM CDT
Nautical Twilight 6:49 AM CDT 8:33 PM CDT
Astronomical Twilight 6:13 AM CDT 9:09 PM CDT
Moon 2:54 PM CDT (10/4) 11:33 PM CDT (10/4)
Length of Visible Light 12h 32m
Length of Day
11h 30m
Waxing Crescent, 40% of the Moon is Illuminated
Oct 4
Waxing Crescent
Oct 5
First Quarter
Oct 13
Full
Oct 21
Last Quarter
Oct 27
New

Hourly Weather History & Observations

Time (CDT) Temp. Windchill Dew Point Humidity Pressure Visibility Wind Dir Wind Speed Gust Speed Precip Events Conditions
12:15 AM 35.6 °F 26.2 °F 35.6 °F 100% 30.18 in 10.0 mi SE 15.0 mph - N/A   Clear
12:35 AM 35.6 °F 25.9 °F 35.6 °F 100% 30.18 in 10.0 mi SE 16.1 mph - N/A   Clear
12:55 AM 35.6 °F 25.5 °F 35.6 °F 100% 30.17 in 10.0 mi SE 17.3 mph 23.0 mph N/A   Clear
1:15 AM 35.6 °F 26.6 °F 35.6 °F 100% 30.17 in 10.0 mi SE 13.8 mph - N/A   Partly Cloudy
1:35 AM 37.4 °F 28.5 °F 37.4 °F 100% 30.16 in 10.0 mi SE 15.0 mph - N/A   Mostly Cloudy
1:55 AM 35.6 °F 25.9 °F 35.6 °F 100% 30.15 in 10.0 mi SE 16.1 mph 21.9 mph N/A   Scattered Clouds
2:15 AM 37.4 °F 28.9 °F 37.4 °F 100% 30.15 in 10.0 mi SE 13.8 mph - N/A   Mostly Cloudy
2:35 AM 37.4 °F 28.9 °F 37.4 °F 100% 30.15 in 10.0 mi SE 13.8 mph - N/A   Overcast
2:55 AM 37.4 °F 27.8 °F 37.4 °F 100% 30.14 in 10.0 mi SE 17.3 mph 24.2 mph N/A   Overcast
3:15 AM 37.4 °F 27.5 °F 37.4 °F 100% 30.13 in 10.0 mi SE 18.4 mph 25.3 mph N/A   Overcast
3:35 AM 37.4 °F 27.5 °F 37.4 °F 100% 30.13 in 10.0 mi SE 18.4 mph 27.6 mph N/A   Overcast
3:55 AM 37.4 °F 26.6 °F 37.4 °F 100% 30.11 in 10.0 mi SE 21.9 mph 31.1 mph N/A   Mostly Cloudy
4:15 AM 37.4 °F 28.5 °F 37.4 °F 100% 30.10 in 10.0 mi SE 15.0 mph 21.9 mph N/A   Mostly Cloudy
4:35 AM 37.4 °F 28.2 °F 37.4 °F 100% 30.09 in 10.0 mi SE 16.1 mph 21.9 mph N/A   Mostly Cloudy
4:55 AM 35.6 °F 25.5 °F 35.6 °F 100% 30.08 in 10.0 mi SE 17.3 mph 23.0 mph N/A   Mostly Cloudy
5:15 AM 37.4 °F 28.5 °F 37.4 °F 100% 30.07 in 10.0 mi SE 15.0 mph - N/A   Mostly Cloudy
5:35 AM 37.4 °F 29.3 °F 37.4 °F 100% 30.06 in 10.0 mi SE 12.7 mph 20.7 mph N/A   Overcast
5:55 AM 37.4 °F 29.8 °F 37.4 °F 100% 30.06 in 10.0 mi SE 11.5 mph - N/A   Overcast
6:15 AM 39.2 °F 31.2 °F 39.2 °F 100% 30.06 in 10.0 mi SE 13.8 mph - N/A   Overcast
6:35 AM 39.2 °F 30.5 °F 39.2 °F 100% 30.05 in 10.0 mi SE 16.1 mph 23.0 mph N/A   Overcast
6:55 AM 39.2 °F 29.6 °F 39.2 °F 100% 30.05 in 10.0 mi SE 19.6 mph - N/A   Overcast
7:15 AM 39.2 °F 29.6 °F 39.2 °F 100% 30.05 in 10.0 mi SE 19.6 mph - N/A   Overcast
7:35 AM 39.2 °F 30.8 °F 39.2 °F 100% 30.04 in 10.0 mi SE 15.0 mph 25.3 mph N/A   Overcast
7:55 AM 39.2 °F 29.8 °F 39.2 °F 100% 30.03 in 10.0 mi SE 18.4 mph 27.6 mph N/A   Overcast
8:15 AM 39.2 °F 30.8 °F 39.2 °F 100% 30.03 in 10.0 mi SE 15.0 mph 24.2 mph N/A   Overcast
8:35 AM 39.2 °F 29.0 °F 39.2 °F 100% 30.02 in 10.0 mi SE 21.9 mph 31.1 mph N/A   Overcast
8:55 AM 41.0 °F 32.2 °F 41.0 °F 100% 30.01 in 10.0 mi SE 18.4 mph 26.5 mph N/A   Unknown
9:15 AM 41.0 °F 31.6 °F 41.0 °F 100% 30.00 in 10.0 mi SE 20.7 mph 26.5 mph N/A   Overcast
9:35 AM 41.0 °F 31.1 °F 41.0 °F 100% 29.99 in 10.0 mi SE 23.0 mph 29.9 mph N/A   Unknown
10:35 AM 41.0 °F 32.8 °F 41.0 °F 100% 29.98 in 10.0 mi SE 16.1 mph 25.3 mph N/A   Overcast
10:55 AM 42.8 °F 34.0 °F 42.8 °F 100% 29.97 in 10.0 mi SE 20.7 mph 27.6 mph N/A   Overcast
11:15 AM 42.8 °F 34.0 °F 42.8 °F 100% 29.96 in 10.0 mi SSE 20.7 mph 29.9 mph N/A   Overcast
11:35 AM 42.8 °F 33.8 °F 42.8 °F 100% 29.95 in 10.0 mi SE 21.9 mph 31.1 mph N/A   Overcast
11:55 AM 42.8 °F 33.8 °F 42.8 °F 100% 29.94 in 10.0 mi SSE 21.9 mph 29.9 mph N/A   Overcast
12:15 PM 44.6 °F 38.8 °F 42.8 °F 93% 29.95 in 10.0 mi SSE 11.5 mph 25.3 mph N/A   Overcast
12:35 PM 44.6 °F 37.8 °F 42.8 °F 93% 29.94 in 10.0 mi SE 15.0 mph 25.3 mph N/A   Overcast
12:55 PM 44.6 °F 36.9 °F 44.6 °F 100% 29.93 in 10.0 mi SE 18.4 mph 26.5 mph N/A   Overcast
1:15 PM 44.6 °F 37.2 °F 44.6 °F 100% 29.92 in 10.0 mi SE 17.3 mph - N/A   Overcast
1:35 PM 44.6 °F 37.2 °F 44.6 °F 100% 29.92 in 10.0 mi SE 17.3 mph 25.3 mph N/A   Overcast
1:55 PM 44.6 °F 37.2 °F 44.6 °F 100% 29.91 in 10.0 mi SE 17.3 mph - N/A   Overcast
2:15 PM 46.4 °F 40.1 °F 44.6 °F 93% 29.90 in 10.0 mi SE 15.0 mph 21.9 mph N/A   Overcast
2:35 PM 46.4 °F 39.8 °F 44.6 °F 93% 29.88 in 10.0 mi SE 16.1 mph - N/A   Overcast
2:55 PM 48.2 °F - 46.4 °F 93% 29.87 in 10.0 mi SE 12.7 mph 19.6 mph N/A   Overcast
3:15 PM 48.2 °F - 46.4 °F 93% 29.86 in 10.0 mi SE 16.1 mph 21.9 mph N/A   Overcast
3:35 PM 48.2 °F - 46.4 °F 93% 29.86 in 10.0 mi SE 13.8 mph - N/A   Overcast
3:55 PM 46.4 °F 41.5 °F 46.4 °F 100% 29.86 in 10.0 mi SE 10.4 mph 19.6 mph N/A   Overcast
4:15 PM 48.2 °F - 46.4 °F 93% 29.85 in 10.0 mi SE 10.4 mph 17.3 mph N/A   Unknown
4:35 PM 48.2 °F - 46.4 °F 93% 29.84 in 10.0 mi SE 13.8 mph - N/A   Overcast
4:55 PM 48.2 °F - 46.4 °F 93% 29.84 in 10.0 mi SE 15.0 mph - N/A   Overcast
5:15 PM 48.2 °F - 48.2 °F 100% 29.84 in 10.0 mi SE 11.5 mph 20.7 mph N/A   Overcast
5:35 PM 48.2 °F - 48.2 °F 100% 29.84 in 10.0 mi SE 15.0 mph - N/A   Overcast
5:55 PM 48.2 °F - 48.2 °F 100% 29.84 in 10.0 mi SE 16.1 mph - N/A   Mostly Cloudy
6:15 PM 48.2 °F - 46.4 °F 93% 29.84 in 10.0 mi SE 16.1 mph - N/A   Scattered Clouds
6:35 PM 48.2 °F - 46.4 °F 93% 29.84 in 10.0 mi SE 13.8 mph 21.9 mph N/A   Scattered Clouds
6:55 PM 48.2 °F - 46.4 °F 93% 29.83 in 10.0 mi ESE 10.4 mph - N/A   Mostly Cloudy
7:15 PM 48.2 °F - 46.4 °F 93% 29.84 in 10.0 mi ESE 10.4 mph - N/A   Overcast
7:35 PM 48.2 °F - 46.4 °F 93% 29.84 in 10.0 mi ESE 8.1 mph - N/A   Overcast
7:55 PM 48.2 °F - 46.4 °F 93% 29.84 in 10.0 mi ESE 9.2 mph - N/A   Overcast
8:15 PM 48.2 °F - 46.4 °F 93% 29.84 in 10.0 mi SE 4.6 mph - N/A   Overcast
8:35 PM 48.2 °F - 46.4 °F 93% 29.85 in 10.0 mi Calm Calm - N/A   Mostly Cloudy
8:55 PM 48.2 °F - 46.4 °F 93% 29.84 in 10.0 mi ESE 4.6 mph - N/A   Mostly Cloudy
9:15 PM 48.2 °F - 46.4 °F 93% 29.84 in 10.0 mi Calm Calm - N/A   Overcast
9:35 PM 48.2 °F - 46.4 °F 93% 29.84 in 10.0 mi East 4.6 mph - N/A   Mostly Cloudy
9:55 PM 48.2 °F - 46.4 °F 93% 29.85 in 10.0 mi NNE 4.6 mph - N/A   Overcast
10:15 PM 48.2 °F - 46.4 °F 93% 29.85 in 10.0 mi Calm Calm - N/A   Overcast
10:35 PM 48.2 °F - 46.4 °F 93% 29.84 in 10.0 mi ENE 4.6 mph - N/A   Overcast
10:55 PM 48.2 °F - 48.2 °F 100% 29.85 in 10.0 mi SE 6.9 mph - N/A   Overcast
11:15 PM 48.2 °F - 46.4 °F 93% 29.84 in 10.0 mi ESE 5.8 mph - N/A   Overcast
11:35 PM 48.2 °F - 46.4 °F 93% 29.84 in 10.0 mi ESE 4.6 mph - N/A   Overcast
11:55 PM 48.2 °F - 48.2 °F 100% 29.83 in 10.0 mi Calm Calm - N/A   Overcast